Weather History for KPYX - January, 2014

Change the Weather History Date:

Tuesday, January 14, 2014

  Actual Average Record
Temperature  
Mean Temperature 36 °F -  
Max Temperature 46 °F 47 °F 75 °F (1980)
Min Temperature 25 °F 16 °F -7 °F (1979)
Degree Days  
Heating Degree Days 30    
Moisture  
Dew Point 19 °F    
Average Humidity 49    
Maximum Humidity 71    
Minimum Humidity 28    
Precipitation  
Precipitation 0.00 in - - ()
Sea Level Pressure  
Sea Level Pressure 30.20 in    
Wind  
Wind Speed 15 mph (NNW)    
Max Wind Speed 32 mph    
Max Gust Speed 39 mph    
Visibility 10 miles    
Events      
Averages and records for this station are not official NWS values.
T = Trace of Precipitation, MM = Missing Value Source: NWS Daily Summary

Daily Weather History Graph

Daily Weather History Graph

Search for Another Location

Airport or City:

Trip Planner

Search our weather history database for the weather conditions in past years. The results will help you decide how hot, cold, wet, or windy it might be!

Date:

Astronomy

Jan. 14, 2014 Rise Set
Actual Time 7:54 AM CST 5:50 PM CST
Civil Twilight 7:25 AM CST 6:18 PM CST
Nautical Twilight 6:54 AM CST 6:50 PM CST
Astronomical Twilight 6:23 AM CST 7:21 PM CST
Moon 4:56 PM CST (1/14) 6:30 AM CST (1/14)
Length of Visible Light 10h 52m
Length of Day
9h 56m
Waxing Gibbous, 98% of the Moon is Illuminated
Jan 14
Waxing Gibbous
Jan 15
Full
Jan 23
Last Quarter
Jan 30
New
Feb 6
First Quarter

Hourly Weather History & Observations

Time (CST) Temp. Windchill Dew Point Humidity Pressure Visibility Wind Dir Wind Speed Gust Speed Precip Events Conditions
12:15 AM 38.1 °F 30.2 °F 10.0 °F 31% 29.96 in 10.0 mi WSW 12.7 mph - N/A   Clear
12:35 AM 37.8 °F 29.8 °F 10.0 °F 32% 29.96 in 10.0 mi WSW 12.7 mph - N/A   Clear
12:55 AM 36.5 °F 28.2 °F 10.2 °F 34% 29.94 in 10.0 mi WSW 12.7 mph - N/A   Clear
1:15 AM 33.3 °F 26.4 °F 11.7 °F 41% 29.96 in 10.0 mi West 8.1 mph - N/A   Clear
1:35 AM 30.6 °F 22.4 °F 13.1 °F 48% 29.95 in 10.0 mi West 9.2 mph - N/A   Clear
1:55 AM 31.1 °F 22.4 °F 13.1 °F 47% 29.95 in 10.0 mi West 10.4 mph - N/A   Clear
2:15 AM 31.6 °F 23.7 °F 12.9 °F 46% 29.96 in 10.0 mi West 9.2 mph - N/A   Clear
2:35 AM 29.8 °F 22.2 °F 13.3 °F 50% 29.96 in 10.0 mi WNW 8.1 mph - N/A   Clear
2:55 AM 28.6 °F 20.7 °F 13.6 °F 54% 29.97 in 10.0 mi WNW 8.1 mph - N/A   Clear
3:15 AM 28.6 °F 19.3 °F 13.8 °F 54% 29.97 in 10.0 mi West 10.4 mph - N/A   Clear
3:35 AM 29.8 °F 22.2 °F 14.0 °F 52% 29.98 in 10.0 mi WNW 8.1 mph - N/A   Clear
3:55 AM 30.9 °F 21.2 °F 14.4 °F 50% 30.02 in 10.0 mi North 12.7 mph - N/A   Clear
4:15 AM 33.6 °F 25.0 °F 15.1 °F 47% 30.02 in 10.0 mi NW 11.5 mph - N/A   Scattered Clouds
4:35 AM 33.1 °F 24.9 °F 15.8 °F 49% 30.02 in 10.0 mi NW 10.4 mph - N/A   Scattered Clouds
4:55 AM 31.1 °F 22.4 °F 15.8 °F 53% 30.03 in 10.0 mi WNW 10.4 mph - N/A   Clear
5:15 AM 31.5 °F 24.2 °F 16.5 °F 54% 30.03 in 10.0 mi WNW 8.1 mph - N/A   Clear
5:35 AM 33.4 °F 28.1 °F 19.0 °F 56% 30.04 in 10.0 mi WNW 5.8 mph - N/A   Clear
5:55 AM 35.8 °F 28.3 °F 22.3 °F 58% 30.04 in 10.0 mi NNW 10.4 mph - N/A   Mostly Cloudy
6:15 AM 34.7 °F 27.5 °F 22.6 °F 61% 30.05 in 10.0 mi NNW 9.2 mph - N/A   Scattered Clouds
6:35 AM 36.0 °F 28.5 °F 23.5 °F 61% 30.05 in 10.0 mi NNW 10.4 mph - N/A   Mostly Cloudy
6:55 AM 36.9 °F 30.1 °F 24.8 °F 62% 30.06 in 10.0 mi NNW 9.2 mph - N/A   Overcast
7:15 AM 37.0 °F 30.4 °F 24.6 °F 61% 30.06 in 10.0 mi NNW 9.2 mph - N/A   Mostly Cloudy
7:35 AM 34.3 °F 27.7 °F 23.4 °F 64% 30.07 in 10.0 mi NNW 8.1 mph - N/A   Scattered Clouds
7:55 AM 33.1 °F 24.4 °F 23.5 °F 68% 30.10 in 10.0 mi NW 11.5 mph - N/A   Clear
8:15 AM 35.1 °F 25.2 °F 24.3 °F 65% 30.10 in 10.0 mi North 16.1 mph 19.6 mph N/A   Clear
8:35 AM 39.4 °F 29.0 °F 25.7 °F 58% 30.12 in 10.0 mi North 23.0 mph 28.8 mph N/A   Clear
8:55 AM 40.5 °F 30.4 °F 26.6 °F 58% 30.15 in 10.0 mi North 23.0 mph - N/A   Clear
9:15 AM 43.3 °F 34.2 °F 28.0 °F 55% 30.17 in 10.0 mi North 23.0 mph 31.1 mph N/A   Mostly Cloudy
9:35 AM 42.1 °F 33.6 °F 27.0 °F 55% 30.19 in 10.0 mi North 18.4 mph 32.2 mph N/A   Mostly Cloudy
9:55 AM 41.7 °F 31.9 °F 26.2 °F 54% 30.21 in 10.0 mi North 24.2 mph 31.1 mph N/A   Mostly Cloudy
10:15 AM 41.9 °F 32.6 °F 22.3 °F 46% 30.21 in 10.0 mi North 21.9 mph 31.1 mph N/A   Overcast
10:35 AM 41.9 °F 32.6 °F 19.6 °F 41% 30.23 in 10.0 mi North 21.9 mph 36.8 mph N/A   Mostly Cloudy
10:55 AM 43.9 °F 34.3 °F 21.0 °F 40% 30.24 in 10.0 mi North 26.5 mph 35.7 mph N/A   Scattered Clouds
11:15 AM 44.1 °F 34.0 °F 21.6 °F 41% 30.25 in 10.0 mi North 29.9 mph 35.7 mph N/A   Scattered Clouds
11:35 AM 45.5 °F 36.3 °F 18.1 °F 34% 30.24 in 10.0 mi North 27.6 mph 35.7 mph N/A   Clear
11:55 AM 45.5 °F 36.7 °F 16.0 °F 31% 30.25 in 10.0 mi North 25.3 mph 34.5 mph N/A   Clear
12:15 PM 45.7 °F 36.7 °F 14.0 °F 28% 30.25 in 10.0 mi North 26.5 mph 35.7 mph N/A   Scattered Clouds
12:35 PM 45.9 °F 36.3 °F 14.9 °F 29% 30.24 in 10.0 mi North 31.1 mph 39.1 mph N/A   Scattered Clouds
12:55 PM 46.8 °F - 17.6 °F 31% 30.26 in 10.0 mi North 32.2 mph 38.0 mph N/A   Mostly Cloudy
1:15 PM 45.1 °F 35.3 °F 18.7 °F 35% 30.26 in 10.0 mi North 31.1 mph 36.8 mph N/A   Mostly Cloudy
1:35 PM 45.9 °F 36.6 °F 21.9 °F 39% 30.26 in 10.0 mi North 28.8 mph 36.8 mph N/A   Scattered Clouds
1:55 PM 44.8 °F 35.7 °F 23.7 °F 44% 30.27 in 10.0 mi North 25.3 mph 31.1 mph N/A   Scattered Clouds
2:15 PM 44.6 °F 34.9 °F 24.8 °F 46% 30.28 in 10.0 mi North 28.8 mph 33.4 mph N/A   Mostly Cloudy
2:35 PM 43.9 °F 33.8 °F 25.0 °F 47% 30.29 in 10.0 mi North 29.9 mph 34.5 mph N/A   Overcast
2:55 PM 43.0 °F 33.3 °F 22.3 °F 44% 30.30 in 10.0 mi North 25.3 mph 32.2 mph N/A   Overcast
3:15 PM 43.0 °F 33.1 °F 21.6 °F 43% 30.31 in 10.0 mi NNW 26.5 mph 31.1 mph N/A   Mostly Cloudy
3:35 PM 42.8 °F 33.5 °F 17.1 °F 36% 30.31 in 10.0 mi NNW 23.0 mph 27.6 mph N/A   Overcast
3:55 PM 44.1 °F 34.8 °F 16.9 °F 34% 30.32 in 10.0 mi NNW 25.3 mph 33.4 mph N/A   Scattered Clouds
4:15 PM 42.1 °F 32.6 °F 18.0 °F 38% 30.33 in 10.0 mi NNW 23.0 mph 28.8 mph N/A   Mostly Cloudy
4:35 PM 42.4 °F 33.1 °F 16.3 °F 35% 30.32 in 10.0 mi NNW 23.0 mph 32.2 mph N/A   Mostly Cloudy
4:55 PM 42.6 °F 32.8 °F 16.9 °F 35% 30.33 in 10.0 mi NNW 25.3 mph - N/A   Scattered Clouds
5:15 PM 41.4 °F 32.1 °F 18.1 °F 39% 30.34 in 10.0 mi NNW 20.7 mph - N/A   Mostly Cloudy
5:35 PM 40.5 °F 31.8 °F 19.0 °F 42% 30.35 in 10.0 mi NW 17.3 mph - N/A   Mostly Cloudy
5:55 PM 39.9 °F 32.5 °F 19.2 °F 43% 30.35 in 10.0 mi NNW 12.7 mph - N/A   Overcast
6:15 PM 39.4 °F 31.1 °F 20.5 °F 47% 30.35 in 10.0 mi NW 15.0 mph - N/A   Overcast
6:35 PM 39.4 °F 29.0 °F 18.3 °F 43% 30.36 in 10.0 mi NW 23.0 mph 26.5 mph N/A   Overcast
6:55 PM 37.6 °F 28.4 °F 18.0 °F 45% 30.36 in 10.0 mi NW 16.1 mph - N/A   Scattered Clouds
7:15 PM 35.6 °F 27.1 °F 18.3 °F 50% 30.36 in 10.0 mi NW 12.7 mph - N/A   Mostly Cloudy
7:35 PM 34.9 °F 26.6 °F 18.5 °F 51% 30.37 in 10.0 mi WNW 11.5 mph - N/A   Mostly Cloudy
7:55 PM 33.1 °F 24.9 °F 18.3 °F 55% 30.38 in 10.0 mi WNW 10.4 mph - N/A   Scattered Clouds
8:15 PM 32.0 °F 24.2 °F 18.5 °F 58% 30.38 in 10.0 mi WNW 9.2 mph - N/A   Scattered Clouds
8:35 PM 32.2 °F 22.7 °F 18.9 °F 58% 30.38 in 10.0 mi West 12.7 mph - N/A   Mostly Cloudy
8:55 PM 32.9 °F 24.7 °F 18.3 °F 55% 30.37 in 10.0 mi WNW 10.4 mph - N/A   Scattered Clouds
9:15 PM 31.5 °F 25.8 °F 17.8 °F 57% 30.38 in 10.0 mi North 5.8 mph - N/A   Clear
9:35 PM 29.3 °F 22.3 °F 18.1 °F 63% 30.38 in 10.0 mi North 6.9 mph - N/A   Scattered Clouds
9:55 PM 28.9 °F 21.1 °F 17.4 °F 62% 30.37 in 10.0 mi NNW 8.1 mph - N/A   Scattered Clouds
10:15 PM 27.9 °F 19.8 °F 17.6 °F 65% 30.36 in 10.0 mi NW 8.1 mph - N/A   Mostly Cloudy
10:35 PM 27.5 °F 21.1 °F 17.8 °F 67% 30.35 in 10.0 mi NW 5.8 mph - N/A   Mostly Cloudy
10:55 PM 27.5 °F 21.1 °F 17.6 °F 66% 30.35 in 10.0 mi NW 5.8 mph - N/A   Mostly Cloudy
11:15 PM 26.1 °F 17.6 °F 17.6 °F 70% 30.35 in 10.0 mi NW 8.1 mph - N/A   Scattered Clouds
11:35 PM 25.2 °F 19.5 °F 16.7 °F 70% 30.35 in 10.0 mi NNW 4.6 mph - N/A   Scattered Clouds
11:55 PM 25.2 °F 17.3 °F 17.1 °F 71% 30.35 in 10.0 mi NNW 6.9 mph - N/A   Clear